H1 CPF 2 NER 2023 6 8 9 159 01 glonass143 H2 2007501 9143 46805 2023 6 8 0 0 0 2023 6 11 23 45 0 900 1 1 0 0 0 1 H9 10 0 60103 0.00000 0 -8893342.284 14536040.406 18985439.782 10 0 60103 900.00000 0 -10798199.711 15675350.759 16982915.741 10 0 60103 1800.00000 0 -12390277.399 16807119.699 14650588.183 10 0 60103 2700.00000 0 -13650307.537 17871735.522 12033669.845 10 0 60103 3600.00000 0 -14571917.823 18808907.706 9182929.862 10 0 60103 4500.00000 0 -15161653.412 19560281.644 6153712.577 10 0 60103 5400.00000 0 -15438463.426 20071993.219 3004864.253 10 0 60103 6300.00000 0 -15432673.921 20297054.929 -202411.584 10 0 60103 7200.00000 0 -15184490.935 20197471.933 -3405747.634 10 0 60103 8100.00000 0 -14742097.323 19745997.514 -6542831.401 10 0 60103 9000.00000 0 -14159424.432 18927452.526 -9552624.391 10 0 60103 9900.00000 0 -13493693.642 17739551.781 -12376557.283 10 0 60103 10800.00000 0 -12802832.639 16193201.224 -14959676.894 10 0 60103 11700.00000 0 -12142876.642 14312252.212 -17251721.863 10 0 60103 12600.00000 0 -11565465.309 12132722.250 -19208105.426 10 0 60103 13500.00000 0 -11115541.910 9701514.136 -20790785.819 10 0 60103 14400.00000 0 -10829352.458 7074686.606 -21969007.233 10 0 60103 15300.00000 0 -10732829.687 4315348.437 -22719896.970 10 0 60103 16200.00000 0 -10840430.128 1491263.604 -23028907.521 10 0 60103 17100.00000 0 -11154473.314 -1327732.896 -22890095.336 10 0 60103 18000.00000 0 -11665010.740 -4072401.252 -22306231.361 10 0 60103 18900.00000 0 -12350229.824 -6676734.544 -21288741.624 10 0 60103 19800.00000 0 -13177375.525 -9080458.797 -19857479.434 10 0 60103 20700.00000 0 -14104150.468 -11231292.144 -18040333.935 10 0 60103 21600.00000 0 -15080534.309 -13086870.059 -15872682.864 10 0 60103 22500.00000 0 -16050945.437 -14616257.650 -13396700.301 10 0 60103 23400.00000 0 -16956653.725 -15800987.336 -10660533.033 10 0 60103 24300.00000 0 -17738342.461 -16635580.100 -7717361.661 10 0 60103 25200.00000 0 -18338711.363 -17127530.161 -4624364.855 10 0 60103 26100.00000 0 -18705010.799 -17296755.369 -1441607.079 10 0 60103 27000.00000 0 -18791400.340 -17174537.996 1769128.358 10 0 60103 27900.00000 0 -18561032.144 -16802001.891 4945538.126 10 0 60103 28800.00000 0 -17987771.323 -16228191.311 8026006.072 10 0 60103 29700.00000 0 -17057480.777 -15507833.269 10950795.342 10 0 60103 30600.00000 0 -15768816.226 -14698878.271 13663202.432 10 0 60103 31500.00000 0 -14133497.760 -13859923.341 16110651.006 10 0 60103 32400.00000 0 -12176046.017 -13047625.851 18245704.792 10 0 60103 33300.00000 0 -9932993.328 -12314216.736 20026980.549 10 0 60103 34200.00000 0 -7451601.913 -11705217.295 21419944.121 10 0 60103 35100.00000 0 -4788141.448 -11257455.025 22397574.937 10 0 60103 36000.00000 0 -2005796.423 -10997461.392 22940886.779 10 0 60103 36900.00000 0 827711.128 -10940318.437 23039295.250 10 0 60103 37800.00000 0 3642686.277 -11089002.553 22690825.110 10 0 60103 38700.00000 0 6370108.300 -11434253.053 21902153.439 10 0 60103 39600.00000 0 8944251.702 -11954971.530 20688487.448 10 0 60103 40500.00000 0 11305173.614 -12619135.849 19073278.657 10 0 60103 41400.00000 0 13400965.223 -13385191.250 17087778.066 10 0 60103 42300.00000 0 15189674.284 -14203860.919 14770439.929 10 0 60103 43200.00000 0 16640819.161 -15020300.698 12166184.624 10 0 60103 44100.00000 0 17736431.486 -15776507.769 9325533.921 10 0 60103 45000.00000 0 18471583.983 -16413882.093 6303634.734 10 0 60103 45900.00000 0 18854381.420 -16875832.471 3159189.801 10 0 60103 46800.00000 0 18905415.211 -17110316.742 -46684.034 10 0 60103 47700.00000 0 18656704.777 -17072207.957 -3251647.502 10 0 60103 48600.00000 0 18150170.638 -16725385.444 -6393356.855 10 0 60103 49500.00000 0 17435704.145 -16044461.022 -9410683.631 10 0 60103 50400.00000 0 16568916.011 -15016066.006 -12244911.584 10 0 60103 51300.00000 0 15608659.511 -13639643.227 -14840886.574 10 0 60103 52200.00000 0 14614433.833 -11927709.277 -17148096.255 10 0 60103 53100.00000 0 13643778.016 -9905574.702 -19121657.862 10 0 60103 54000.00000 0 12749766.225 -7610532.888 -20723194.495 10 0 60103 54900.00000 0 11978710.519 -5090550.770 -21921582.697 10 0 60103 55800.00000 0 11368168.297 -2402515.562 -22693556.880 10 0 60103 56700.00000 0 10945338.367 389889.720 -23024159.088 10 0 60103 57600.00000 0 10725913.018 3218593.783 -22907025.808 10 0 60103 58500.00000 0 10713433.963 6013727.590 -22344506.670 10 0 60103 59400.00000 0 10899178.703 8706290.532 -21347613.226 10 0 60103 60300.00000 0 11262581.408 11230781.771 -19935799.157 10 0 60103 61200.00000 0 11772169.869 13527687.859 -18136576.546 10 0 60103 62100.00000 0 12386978.404 15545723.908 -15984975.891 10 0 60103 63000.00000 0 13058376.521 17243735.892 -13522860.526 10 0 60103 63900.00000 0 13732235.710 18592185.908 -10798108.939 10 0 60103 64800.00000 0 14351342.520 19574159.649 -7863681.019 10 0 60103 65700.00000 0 14857955.741 20185855.438 -4776586.526 10 0 60103 66600.00000 0 15196399.468 20436535.781 -1596776.047 10 0 60103 67500.00000 0 15315582.380 20347944.989 1614023.791 10 0 60103 68400.00000 0 15171336.766 19953218.725 4793508.078 10 0 60103 69300.00000 0 14728478.440 19295332.528 7880000.869 10 0 60103 70200.00000 0 13962500.567 18425155.581 10813648.495 10 0 60103 71100.00000 0 12860829.807 17399192.295 13537575.894 10 0 60103 72000.00000 0 11423591.623 16277107.111 15998983.766 10 0 60103 72900.00000 0 9663852.066 15119136.684 18150165.787 10 0 60103 73800.00000 0 7607325.207 13983497.969 19949426.781 10 0 60103 74700.00000 0 5291557.493 12923900.645 21361884.764 10 0 60103 75600.00000 0 2764621.932 11987267.670 22360142.098 10 0 60103 76500.00000 0 83375.127 11211758.868 22924813.475 10 0 60103 77400.00000 0 -2688651.790 10625179.827 23044900.981 10 0 60103 78300.00000 0 -5483642.289 10243842.245 22718009.338 10 0 60103 79200.00000 0 -8232066.011 10071923.219 21950397.102 10 0 60103 80100.00000 0 -10865327.512 10101350.268 20756862.519 10 0 60103 81000.00000 0 -13318383.500 10312217.123 19160465.601 10 0 60103 81900.00000 0 -15532220.967 10673713.217 17192090.929 10 0 60103 82800.00000 0 -17456093.854 11145528.361 14889858.616 10 0 60103 83700.00000 0 -19049425.660 11679674.070 12298393.804 10 0 60103 84600.00000 0 -20283298.825 12222645.286 9467967.836 10 0 60103 85500.00000 0 -21141468.669 12717831.612 6453527.060 10 0 60104 0.00000 0 -21620859.334 13108076.199 3313627.871 10 0 60104 900.00000 0 -21731520.969 13338274.002 109296.865 10 0 60104 1800.00000 0 -21496049.393 13357898.297 -3097157.305 10 0 60104 2700.00000 0 -20948493.558 13123348.278 -6243362.329 10 0 60104 3600.00000 0 -20132796.415 12600016.557 -9268102.275 10 0 60104 4500.00000 0 -19100835.697 11763987.953 -12112516.262 10 0 60104 5400.00000 0 -17910147.819 10603296.191 -14721251.236 10 0 60104 6300.00000 0 -16621431.615 9118683.994 -17043545.627 10 0 60104 7200.00000 0 -15295937.945 7323833.127 -19034222.100 10 0 60104 8100.00000 0 -13992855.850 5245053.479 -20654569.689 10 0 60104 9000.00000 0 -12766805.859 2920443.166 -21873098.003 10 0 60104 9900.00000 0 -11665546.260 398554.001 -22666148.882 10 0 60104 10800.00000 0 -10727988.818 -2263382.529 -23018353.895 10 0 60104 11700.00000 0 -9982607.081 -5001595.271 -22922929.181 10 0 60104 12600.00000 0 -9446303.623 -7748190.554 -22381802.351 10 0 60104 13500.00000 0 -9123783.047 -10433746.231 -21405569.460 10 0 60104 14400.00000 0 -9007456.141 -12989975.023 -20013283.273 10 0 60104 15300.00000 0 -9077878.179 -15352346.771 -18232077.276 10 0 60104 16200.00000 0 -9304701.848 -17462560.990 -16096632.991 10 0 60104 17100.00000 0 -9648103.663 -19270767.489 -13648501.119 10 0 60104 18000.00000 0 -10060622.803 -20737443.234 -10935289.870 10 0 60104 18900.00000 0 -10489334.014 -21834848.190 -8009736.388 10 0 60104 19800.00000 0 -10878262.196 -22548000.383 -4928679.472 10 0 60104 20700.00000 0 -11170936.178 -22875130.629 -1751953.781 10 0 60104 21600.00000 0 -11312973.383 -22827599.142 1458772.805 10 0 60104 22500.00000 0 -11254585.918 -22429278.787 4641195.878 10 0 60104 23400.00000 0 -10952901.996 -21715432.026 7733581.828 10 0 60104 24300.00000 0 -10374004.524 -20731129.725 10675962.335 10 0 60104 25200.00000 0 -9494600.642 -19529278.985 13411292.952 10 0 60104 26100.00000 0 -8303251.600 -18168343.320 15886553.553 10 0 60104 27000.00000 0 -6801110.783 -16709851.059 18053769.796 10 0 60104 27900.00000 0 -5002138.239 -15215796.339 19870936.418 10 0 60104 28800.00000 0 -2932781.818 -13746041.261 21302825.204 10 0 60104 29700.00000 0 -631137.127 -12355827.385 22321662.742 10 0 60104 30600.00000 0 1854380.041 -11093499.946 22907665.559 10 0 60104 31500.00000 0 4466795.026 -9998539.235 23049422.797 10 0 60104 32400.00000 0 7142697.739 -9099980.678 22744119.343 10 0 60104 33300.00000 0 9814641.674 -8415289.083 21997595.088 10 0 60104 34200.00000 0 12413720.364 -7949733.730 20824238.848 10 0 60104 35100.00000 0 14872215.704 -7696290.231 19246718.370 10 0 60104 36000.00000 0 17126209.229 -7636073.268 17295550.773 10 0 60104 36900.00000 0 19118048.535 -7739282.223 15008520.713 10 0 60104 37800.00000 0 20798566.635 -7966620.181 12429956.491 10 0 60104 38700.00000 0 22128961.883 -8271126.853 9609877.133 10 0 60104 39600.00000 0 23082259.796 -8600348.267 6603026.233 10 0 60104 40500.00000 0 23644295.358 -8898751.587 3467810.819 10 0 60104 41400.00000 0 23814174.272 -9110282.680 265165.682 10 0 60104 42300.00000 0 23604193.471 -9180957.598 -2942634.519 10 0 60104 43200.00000 0 23039224.017 -9061377.374 -6093191.800 10 0 60104 44100.00000 0 22155582.359 -8709058.459 -9125205.606 10 0 60104 45000.00000 0 20999437.626 -8090478.808 -11979673.136 10 0 60104 45900.00000 0 19624822.464 -7182751.554 -14601044.938 10 0 60104 46800.00000 0 18091331.716 -5974854.016 -16938312.499 10 0 60104 47700.00000 0 16461606.492 -4468358.727 -18946005.935 10 0 60104 48600.00000 0 14798710.091 -2677634.319 -20585081.974 10 0 60104 49500.00000 0 13163506.626 -629506.612 -21823684.761 10 0 60104 50400.00000 0 11612152.818 1637606.889 -22637764.757 10 0 60104 51300.00000 0 10193808.302 4075053.627 -23011543.926 10 0 60104 52200.00000 0 8948660.260 6625737.766 -22937818.614 10 0 60104 53100.00000 0 7906344.674 9226272.731 -22418094.620 10 0 60104 54000.00000 0 7084829.554 11809405.237 -21462552.373 10 0 60104 54900.00000 0 6489805.866 14306610.134 -20089843.230 10 0 60104 55800.00000 0 6114610.470 16650748.349 -18326721.235 10 0 60104 56700.00000 0 5940682.931 18778677.566 -16207517.741 10 0 60104 57600.00000 0 5938535.607 20633707.369 -13773469.255 10 0 60104 58500.00000 0 6069194.884 22167796.965 -11071911.792 10 0 60104 59400.00000 0 6286051.619 23343404.469 -8155357.481 10 0 60104 60300.00000 0 6537041.699 24134911.278 -5080471.571 10 0 60104 61200.00000 0 6767063.817 24529562.880 -1906969.911 10 0 60104 62100.00000 0 6920531.651 24527887.688 1303541.448 10 0 60104 63000.00000 0 6943952.101 24143577.410 4488761.812 10 0 60104 63900.00000 0 6788420.303 23402834.932 7586903.143 10 0 60104 64800.00000 0 6411925.731 22343218.011 10537885.639 10 0 60104 65700.00000 0 5781371.863 21012027.973 13284498.499 10 0 60104 66600.00000 0 4874223.977 19464311.488 15773503.584 10 0 60104 67500.00000 0 3679715.336 17760559.388 17956661.078 10 0 60104 68400.00000 0 2199560.517 15964198.824 19791657.874 10 0 60104 69300.00000 0 448145.199 14138983.324 21242921.416 10 0 60104 70200.00000 0 -1547816.562 12346389.287 22282304.013 10 0 60104 71100.00000 0 -3750144.541 10643126.822 22889625.090 10 0 60104 72000.00000 0 -6110539.526 9078868.008 23053061.413 10 0 60104 72900.00000 0 -8572360.999 7694286.412 22769378.073 10 0 60104 73800.00000 0 -11072763.046 6519488.844 22043995.768 10 0 60104 74700.00000 0 -13545101.301 5572904.113 20890892.765 10 0 60104 75600.00000 0 -15921512.336 4860674.630 19332342.850 10 0 60104 76500.00000 0 -18135559.483 4376575.995 17398493.432 10 0 60104 77400.00000 0 -20124835.848 4102467.726 15126790.990 10 0 60104 78300.00000 0 -21833416.633 4009256.206 12561263.884 10 0 60104 79200.00000 0 -23214058.619 4058329.337 9751675.461 10 0 60104 80100.00000 0 -24230054.755 4203402.489 6752563.067 10 0 60104 81000.00000 0 -24856665.816 4392697.740 3622181.138 10 0 60104 81900.00000 0 -25082068.598 4571363.969 421368.673 10 0 60104 82800.00000 0 -24907780.194 4684034.895 -2787636.664 10 0 60104 83700.00000 0 -24348540.041 4677415.926 -5942414.278 10 0 60104 84600.00000 0 -23431654.292 4502789.163 -8981581.827 10 0 60104 85500.00000 0 -22195829.960 4118329.192 -11845997.153 10 0 60105 0.00000 0 -20689548.106 3491130.281 -14479916.450 10 0 60105 900.00000 0 -18969043.959 2598857.408 -16832086.646 10 0 60105 1800.00000 0 -17095981.418 1430950.738 -18856746.562 10 0 60105 2700.00000 0 -15134917.458 -10669.635 -20514521.641 10 0 60105 3600.00000 0 -13150665.314 -1711428.923 -21773191.088 10 0 60105 4500.00000 0 -11205666.598 -3644461.496 -22608313.967 10 0 60105 5400.00000 0 -9357482.721 -5771498.982 -23003702.118 10 0 60105 6300.00000 0 -7656510.429 -8044246.152 -22951731.075 10 0 60105 7200.00000 0 -6144016.643 -10406187.611 -22453483.395 10 0 60105 8100.00000 0 -4850573.959 -12794750.287 -21518722.076 10 0 60105 9000.00000 0 -3794961.200 -15143731.838 -20165694.982 10 0 60105 9900.00000 0 -2983573.700 -17385893.936 -18420774.413 10 0 60105 10800.00000 0 -2410366.514 -19455612.571 -16317939.103 10 0 60105 11700.00000 0 -2057331.308 -21291475.073 -13898108.859 10 0 60105 12600.00000 0 -1895485.294 -22838715.803 -11208344.985 10 0 60105 13500.00000 0 -1886329.061 -24051389.164 -8300932.150 10 0 60105 14400.00000 0 -1983710.503 -24894189.642 -5232359.704 10 0 60105 15300.00000 0 -2136015.020 -25343843.291 -2062222.472 10 0 60105 16200.00000 0 -2288588.578 -25390013.112 1147937.409 10 0 60105 17100.00000 0 -2386290.493 -25035681.152 4335824.924 10 0 60105 18000.00000 0 -2376067.541 -24296992.049 7439599.468 10 0 60105 18900.00000 0 -2209440.272 -23202565.323 10399071.531 10 0 60105 19800.00000 0 -1844796.266 -21792305.819 13156865.630 10 0 60105 20700.00000 0 -1249393.373 -20115762.563 15659527.186 10 0 60105 21600.00000 0 -400988.272 -18230104.943 17858552.330 10 0 60105 22500.00000 0 710978.565 -16197800.751 19711321.341 10 0 60105 23400.00000 0 2084691.817 -14084092.772 21181918.314 10 0 60105 24300.00000 0 3705793.963 -11954378.648 22241821.991 10 0 60105 25200.00000 0 5547749.728 -9871602.410 22870455.112 10 0 60105 26100.00000 0 7572728.391 -7893765.464 23055582.177 10 0 60105 27000.00000 0 9732968.689 -6071659.648 22793548.295 10 0 60105 27900.00000 0 11972571.071 -4446915.739 22089354.504 10 0 60105 28800.00000 0 14229644.299 -3050447.845 20956567.813 10 0 60105 29700.00000 0 16438718.565 -1901357.718 19417067.103 10 0 60105 30600.00000 0 18533325.983 -1006344.142 17500628.934 10 0 60105 31500.00000 0 20448641.925 -359641.663 15244360.254 10 0 60105 32400.00000 0 22124077.684 56509.070 12691987.931 10 0 60105 33300.00000 0 23505716.452 270879.281 9893017.851 10 0 60105 34200.00000 0 24548490.594 321799.835 6901779.112 10 0 60105 35100.00000 0 25218008.558 255300.221 3776371.323 10 0 60105 36000.00000 0 25491954.156 122917.673 577535.258 10 0 60105 36900.00000 0 25360998.596 -20730.404 -2632530.994 10 0 60105 37800.00000 0 24829186.141 -120507.199 -5791386.884 10 0 60105 38700.00000 0 23913776.467 -123341.025 -8837570.909 10 0 60105 39600.00000 0 22644549.805 19277.046 -11711804.084 10 0 60105 40500.00000 0 21062603.829 348989.507 -14358151.037 10 0 60105 41400.00000 0 19218692.779 898561.610 -16725115.302 10 0 60105 42300.00000 0 17171178.807 1690249.777 -18766646.761 10 0 60105 43200.00000 0 14983681.790 2734619.493 -20443041.193 10 0 60105 44100.00000 0 12722526.505 4029863.674 -21721714.231 10 0 60105 45000.00000 0 10454094.365 5561651.282 -22577834.682 10 0 60105 45900.00000 0 8242190.676 7303513.420 -22994805.134 10 0 60105 46800.00000 0 6145537.334 9217751.440 -22964580.917 10 0 60105 47700.00000 0 4215495.360 11256829.571 -22487821.632 10 0 60105 48600.00000 0 2494111.668 13365194.220 -21573872.802 10 0 60105 49500.00000 0 1012570.601 15481444.223 -20240578.378 10 0 60105 50400.00000 0 -209886.331 17540761.534 -18513928.123 10 0 60105 51300.00000 0 -1166528.901 19477501.023 -16427546.970 10 0 60105 52200.00000 0 -1863172.731 21227831.313 -14022036.470 10 0 60105 53100.00000 0 -2317680.248 22732316.432 -11344181.303 10 0 60105 54000.00000 0 -2558950.804 23938330.495 -8446036.424 10 0 60105 54900.00000 0 -2625444.078 24802204.664 -5383912.742 10 0 60105 55800.00000 0 -2563300.449 25291016.783 -2217281.270 10 0 60105 56700.00000 0 -2424138.884 25383949.122 992382.739 10 0 60105 57600.00000 0 -2262626.323 25073157.813 4182793.025 10 0 60105 58500.00000 0 -2133921.957 24364117.997 7292059.525 10 0 60105 59400.00000 0 -2091104.892 23275430.750 10259886.080 10 0 60105 60300.00000 0 -2182694.159 21838100.235 13028735.478 10 0 60105 61200.00000 0 -2450365.907 20094311.683 15544939.471 10 0 60105 62100.00000 0 -2926964.211 18095761.390 17759732.701 10 0 60105 63000.00000 0 -3634889.406 15901608.359 19630191.131 10 0 60105 63900.00000 0 -4584932.067 13576132.738 21120057.511 10 0 60105 64800.00000 0 -5775602.080 11186197.986 22200438.685 10 0 60105 65700.00000 0 -7192981.725 8798621.617 22850361.984 10 0 60105 66600.00000 0 -8811109.946 6477562.901 23057180.480 10 0 60105 67500.00000 0 -10592883.053 4282035.070 22816819.644 10 0 60105 68400.00000 0 -12491435.722 2263644.284 22133860.651 10 0 60105 69300.00000 0 -14451946.235 464648.399 21021458.468 10 0 60105 70200.00000 0 -16413792.203 -1083584.650 19501095.693 10 0 60105 71100.00000 0 -18312968.247 -2361655.403 17602176.070 10 0 60105 72000.00000 0 -20084665.838 -3362703.944 15361464.513 10 0 60105 72900.00000 0 -21665908.322 -4092450.059 12822383.429 10 0 60105 73800.00000 0 -22998131.321 -4568701.158 10034177.905 10 0 60105 74700.00000 0 -24029600.393 -4820348.880 7050965.195 10 0 60105 75600.00000 0 -24717564.181 -4885896.889 3930686.352 10 0 60105 76500.00000 0 -25030051.916 -4811582.347 733980.164 10 0 60105 77400.00000 0 -24947238.779 -4649170.871 -2476998.546 10 0 60105 78300.00000 0 -24462320.668 -4453518.961 -5639792.831 10 0 60105 79200.00000 0 -23581860.522 -4280007.973 -8692865.389 10 0 60105 80100.00000 0 -22325590.786 -4181959.349 -11576803.509 10 0 60105 81000.00000 0 -20725679.621 -4208141.786 -14235482.825 10 0 60105 81900.00000 0 -18825491.276 -4400477.130 -16617166.359 10 0 60105 82800.00000 0 -16677892.538 -4792043.300 -18675516.750 10 0 60105 83700.00000 0 -14343176.290 -5405459.836 -20370501.508 10 0 60105 84600.00000 0 -11886689.299 -6251725.303 -21669173.462 10 0 60105 85500.00000 0 -9376263.704 -7329556.459 -22546311.259 10 0 60106 0.00000 0 -6879559.818 -8625257.688 -22984907.649 10 0 60106 900.00000 0 -4461429.817 -10113127.515 -22976496.632 10 0 60106 1800.00000 0 -2181415.297 -11756383.834 -22521313.027 10 0 60106 2700.00000 0 -91478.074 -13508571.710 -21628282.631 10 0 60106 3600.00000 0 1765938.741 -15315393.326 -20314842.870 10 0 60106 4500.00000 0 3359440.984 -17116884.235 -18606598.083 10 0 60106 5400.00000 0 4669742.355 -18849844.799 -16536816.347 10 0 60106 6300.00000 0 5690209.413 -20450425.067 -14145777.811 10 0 60106 7200.00000 0 6426871.618 -21856754.869 -11479987.380 10 0 60106 8100.00000 0 6897897.876 -23011508.975 -8591267.208 10 0 60106 9000.00000 0 7132563.368 -23864299.920 -5535746.789 10 0 60106 9900.00000 0 7169751.841 -24373798.213 -2372770.521 10 0 60106 10800.00000 0 7056057.923 -24509491.221 836255.827 10 0 60106 11700.00000 0 6843570.781 -24253007.141 4029057.110 10 0 60106 12600.00000 0 6587433.594 -23598948.763 7143695.922 10 0 60106 13500.00000 0 6343282.608 -22555202.332 10119771.302 10 0 60106 14400.00000 0 6164674.290 -21142708.754 12899585.880 10 0 60106 15300.00000 0 6100609.412 -19394706.828 15429259.029 10 0 60106 16200.00000 0 6193258.513 -17355480.140 17659764.887 10 0 60106 17100.00000 0 6475984.607 -15078659.659 19547875.777 10 0 60106 18000.00000 0 6971746.384 -12625152.415 21056993.462 10 0 60106 18900.00000 0 7691949.191 -10060781.831 22157852.920 10 0 60106 19800.00000 0 8635792.446 -7453736.938 22829085.789 10 0 60106 20700.00000 0 9790141.472 -4871935.453 23057633.142 10 0 60106 21600.00000 0 11129930.083 -2380409.038 22838999.973 10 0 60106 22500.00000 0 12619078.279 -38818.104 22177346.539 10 0 60106 23400.00000 0 14211888.015 2100801.793 21085414.520 10 0 60106 24300.00000 0 15854860.170 3995969.356 19584288.847 10 0 60106 25200.00000 0 17488858.143 5615283.397 17702998.935 10 0 60106 26100.00000 0 19051528.763 6939482.253 15477966.051 10 0 60106 27000.00000 0 20479880.133 7961993.094 12952306.404 10 0 60106 27900.00000 0 21712908.915 8688948.564 10175002.439 10 0 60106 28800.00000 0 22694166.983 9138670.344 7199957.586 10 0 60106 29700.00000 0 23374159.339 9340641.667 4084952.235 10 0 60106 30600.00000 0 23712471.821 9334012.388 890520.961 10 0 60106 31500.00000 0 23679538.083 9165700.146 -2321226.992 10 0 60106 32400.00000 0 23257970.298 8888168.458 -5487820.612 10 0 60106 33300.00000 0 22443396.324 8556976.521 -8547649.090 10 0 60106 34200.00000 0 21244766.892 8228205.381 -11441168.169 10 0 60106 35100.00000 0 19684118.888 7955870.493 -14112066.485 10 0 60106 36000.00000 0 17795803.852 7789431.356 -16508368.337 10 0 60106 36900.00000 0 15625213.556 7771504.681 -18583450.682 10 0 60106 37800.00000 0 13227055.792 7935878.857 -20296954.092 10 0 60106 38700.00000 0 10663252.435 8305914.491 -21615569.736 10 0 60106 39600.00000 0 8000547.660 8893399.265 -22513687.045 10 0 60106 40500.00000 0 5307926.229 9697905.972 -22973889.715 10 0 60106 41400.00000 0 2653949.413 10706681.185 -22987290.774 10 0 60106 42300.00000 0 104119.389 11895069.527 -22553700.620 10 0 60106 43200.00000 0 -2281618.549 13227455.874 -21681625.257 10 0 60106 44100.00000 0 -4451132.704 14658686.032 -20388095.146 10 0 60106 45000.00000 0 -6362027.531 16135906.236 -18698328.380 10 0 60106 45900.00000 0 -7983153.194 17600744.273 -16645234.983 10 0 60106 46800.00000 0 -9295640.628 18991740.644 -14268772.141 10 0 60106 47700.00000 0 -10293420.536 20246927.635 -11615163.108 10 0 60106 48600.00000 0 -10983206.408 21306447.960 -8735995.094 10 0 60106 49500.00000 0 -11383944.126 22115102.957 -5687213.824 10 0 60106 50400.00000 0 -11525753.046 22624723.235 -2528034.563 10 0 60106 51300.00000 0 -11448404.757 22796262.179 680209.028 10 0 60106 52200.00000 0 -11199405.025 22601524.413 3875255.624 10 0 60106 53100.00000 0 -10831760.955 22024456.630 6995123.194 10 0 60106 54000.00000 0 -10401528.426 21061946.690 9979308.692 10 0 60106 54900.00000 0 -9965243.838 19724097.465 12769957.262 10 0 60106 55800.00000 0 -9577348.813 18033963.880 15312978.477 10 0 60106 56700.00000 0 -9287716.446 16026763.956 17559088.428 10 0 60106 57600.00000 0 -9139383.259 13748596.418 19464758.094 10 0 60106 58500.00000 0 -9166582.100 11254717.800 20993050.337 10 0 60106 59400.00000 0 -9393158.616 8607449.971 22114330.099 10 0 60106 60300.00000 0 -9831437.782 5873804.113 22806834.857 10 0 60106 61200.00000 0 -10481588.283 3122918.701 23057094.839 10 0 60106 62100.00000 0 -11331511.906 423416.548 22860195.296 10 0 60106 63000.00000 0 -12357263.340 -2159210.758 22219875.819 10 0 60106 63900.00000 0 -13523983.830 -4565083.715 21148464.529 10 0 60106 64800.00000 0 -14787310.769 -6742179.256 19666647.847 10 0 60106 65700.00000 0 -16095205.463 -8648246.305 17803079.463 10 0 60106 66600.00000 0 -17390123.599 -10252313.596 15593835.038 10 0 60106 67500.00000 0 -18611438.429 -11535727.474 13081722.131 10 0 60106 68400.00000 0 -19698015.568 -12492676.779 10315457.654 10 0 60106 69300.00000 0 -20590831.530 -13130183.092 7348727.972 10 0 60106 70200.00000 0 -21235525.683 -13467557.025 4239149.310 10 0 60106 71100.00000 0 -21584777.628 -13535343.690 1047148.373 10 0 60106 72000.00000 0 -21600408.901 -13373802.134 -2165214.914 10 0 60106 72900.00000 0 -21255119.215 -13030983.403 -5335459.216 10 0 60106 73800.00000 0 -20533782.694 -12560489.131 -8401903.891 10 0 60106 74700.00000 0 -19434248.083 -12019006.248 -11304876.669 10 0 60106 75600.00000 0 -17967607.932 -11463723.064 -13987882.505 10 0 60106 76500.00000 0 -16157924.279 -10949737.047 -16398709.972 10 0 60106 77400.00000 0 -14041421.468 -10527564.963 -18490452.923 10 0 60106 78300.00000 0 -11665179.293 -10240861.526 -20222427.046 10 0 60106 79200.00000 0 -9085380.748 -10124443.707 -21560963.261 10 0 60106 80100.00000 0 -6365187.418 -10202704.687 -22480062.502 10 0 60106 81000.00000 0 -3572331.038 -10488484.713 -22961899.372 10 0 60106 81900.00000 0 -776521.454 -10982446.629 -22997165.271 10 0 60106 82800.00000 0 1953221.208 -11672982.421 -22585244.719 10 0 60106 83700.00000 0 4551199.531 -12536654.613 -21734221.953 10 0 60106 84600.00000 0 6957527.922 -13539153.772 -20460718.027 10 0 60106 85500.00000 0 9120375.037 -14636731.648 -18789561.973 99